Overview Statistics Trail Chart Weather Telemetry Raw packets
 

This is the latest recevied weather packets stored in our database for station/object W5ALL-WX. If no packets are shown the sender has not sent any weather packets the latest 10 day(s).

<< 48 49 50 51 52 53 54 >>
Time Temp. Humidity Pressure Rain* Wind** Luminosity Snow
1777670401 18.33° C 57% 1014.2 hPa 0 mm - - -
1777670101 18.33° C 57% 1014.3 hPa 0 mm - - -
1777669801 18.33° C 56% 1014.3 hPa 0 mm - - -
1777669501 18.33° C 57% 1014.5 hPa 0 mm - - -
1777669201 18.33° C 58% 1014.5 hPa 0 mm - - -
1777668901 17.78° C 59% 1014.5 hPa 0 mm - - -
1777668601 17.78° C 62% 1014.6 hPa 0 mm - - -
1777668301 17.78° C 63% 1014.6 hPa 0 mm - - -
1777668001 17.78° C 65% 1014.7 hPa 0 mm - - -
1777667701 17.22° C 66% 1014.7 hPa 0 mm - - -
1777667401 17.22° C 68% 1014.7 hPa 0 mm - - -
1777667101 16.67° C 67% 1014.7 hPa 0 mm - - -
1777666801 16.67° C 69% 1014.7 hPa 0 mm - - -
1777666501 17.22° C 70% 1014.7 hPa 0 mm - - -
1777666201 16.67° C 73% 1014.7 hPa 0 mm - - -
1777665901 16.11° C 73% 1014.7 hPa 0 mm - - -
1777665601 15.56° C 73% 1014.7 hPa 0 mm - - -
1777665301 15.56° C 73% 1014.7 hPa 0 mm - - -
1777665001 15.56° C 73% 1014.8 hPa 0 mm - - -
1777664701 16.11° C 74% 1014.9 hPa 0 mm - - -
1777664401 16.11° C 76% 1014.9 hPa 0 mm - - -
1777664101 16.11° C 74% 1014.9 hPa 0 mm - - -
1777663801 16.11° C 75% 1014.9 hPa 0 mm - - -
1777663501 16.11° C 75% 1014.8 hPa 0 mm - - -
1777663201 16.11° C 77% 1014.9 hPa 0 mm - - -

* Rain latest hour (hover to see other rain measurements)
** Current wind speed in m/s (hover to see current wind gust speed)